This demonstration page uses our WeatherBlox Daily Observations layout. Learn more.

Left ArrowRight Arrow

36.17497, -115.13722

Hourly Observations for March 9, 2016

Temp ( °F °C ) Dew Point ( °F °C ) Humidity (%) Winds ( mph kmh ) Pressure ( in mb ) Visibility ( mi km ) Precip ( " mm )
12:53 am 00:53 Clear 57 13.9 23 -5 27 27 NNW 9 15 29.94 1014 10 16.0934 0 0
1:53 am 01:53 Clear 55 12.8 23 -5 29 29 NW 9 15 29.93 1013 10 16.0934 0 0
2:53 am 02:53 Clear 58 14.4 24 -4.4 27 27 NNW 17 28 29.93 1014 10 16.0934 0 0
3:53 am 03:53 Clear 58 14.4 26 -3.3 29 29 NNW 16 26 29.96 1015 10 16.0934 0 0
4:53 am 04:53 Clear 58 14.4 28 -2.2 32 32 NNW 20 31 29.95 1014 10 16.0934 0 0
5:53 am 05:53 Clear 56 13.3 28 -2.2 34 34 NNW 13 20 30.01 1016 10 16.0934 0 0
7:53 am 07:53 Sunny 59 15 28 -2.2 31 31 NNW 14 22 30.04 1017 10 16.0934 0 0
8:53 am 08:53 Sunny 64 17.8 27 -2.8 25 25 N 16 26 30.05 1018 10 16.0934 0 0
9:53 am 09:53 Sunny 68 20 23 -5 18 18 N 15 24 30.05 1018 10 16.0934 0 0
10:53 am 10:53 Sunny 71 21.7 16 -8.9 12 12 N 9 15 30.06 1018 10 16.0934 0 0
11:54 am 11:54 Mostly Sunny 71 21.7 17 -8.3 13 13 VRB 5 7 30.06 1018 10 16.0934 0 0
12:53 pm 12:53 Sunny 72 22.2 16 -8.9 12 12 VRB 7 11 30.03 1017 10 16.0934 0 0
1:53 pm 13:53 Sunny 72 22.2 17 -8.3 12 12 S 7 11 30.02 1017 10 16.0934 0 0
2:53 pm 14:53 Sunny 72 22.2 17 -8.3 12 12 S 7 11 30.01 1016 10 16.0934 0 0
3:53 pm 15:53 Sunny 72 22.2 18 -7.8 13 13 Calm 30.01 1016 10 16.0934 0 0
4:53 pm 16:53 Sunny 72 22.2 18 -7.8 13 13 S 6 9 30.03 1017 10 16.0934 0 0
5:53 pm 17:53 Clear 71 21.7 19 -7.2 14 14 SSE 5 7 30.05 1018 10 16.0934 0 0
6:53 pm 18:53 Clear 68 20 19 -7.2 15 15 Calm 30.07 1018 10 16.0934 0 0
7:53 pm 19:53 Clear 66 18.9 22 -5.6 19 19 NW 7 11 30.08 1019 10 16.0934 0 0
8:53 pm 20:53 Clear 64 17.8 23 -5 21 21 NNW 7 11 30.08 1019 10 16.0934 0 0
9:53 pm 21:53 Clear 61 16.1 24 -4.4 24 24 NW 8 13 30.08 1019 10 16.0934 0 0
10:53 pm 22:53 Clear 62 16.7 24 -4.4 23 23 Calm 30.08 1019 10 16.0934 0 0
11:53 pm 23:53 Clear 61 16.1 24 -4.4 24 24 NNW 12 19 30.09 1019 10 16.0934 0 0

Powered by AerisWeather